EW0784 Weather Reports


Display with metric or nautical units.
time (UTC)temp
F
wind
direction
speed
MPH
gust
MPH
rain 1hr
in
rain 24hr
in
rain mn
in
humidity
%
barometer
mb
20260901230025 83 267 0.0 0.0 0.00 0.00 0.00 50 1012.8
20260901224533 84 265 0.0 0.0 0.00 0.00 0.00 50 1012.6
20260901223024 85 265 0.0 0.0 0.00 0.00 0.00 46 1012.5
20260901221523 84 265 0.0 0.0 0.00 0.00 0.00 48 1012.7
20260901220026 85 226 0.0 0.0 0.00 0.00 0.00 51 1012.5
20260901214522 85 227 0.0 0.0 0.00 0.00 0.00 44 1012.3
20260901213039 87 268 0.0 0.0 0.00 0.00 0.00 41 1012.4
20260901211522 88 226 0.0 1.0 0.00 0.00 0.00 41 1012.1
20260901210025 87 334 0.0 1.0 0.00 0.00 0.00 38 1012.5
20260901204528 88 288 0.0 2.0 0.00 0.00 0.00 38 1012.7
20260901203024 89 170 0.0 0.0 0.00 0.00 0.00 39 1012.8
20260901201514 89 124 0.0 0.0 0.00 0.00 0.00 41 1012.8
20260901200013 87 260 0.0 0.0 0.00 0.00 0.00 45 1013.0
20260901194512 87 243 0.0 0.0 0.00 0.00 0.00 44 1013.0
20260901193014 88 236 0.0 0.0 0.00 0.00 0.00 43 1013.1
20260901191510 87 298 0.0 0.0 0.00 0.00 0.00 45 1013.2
20260901190009 87 86 0.0 0.0 0.00 0.00 0.00 45 1013.3
20260901184520 87 251 0.0 0.0 0.00 0.00 0.00 48 1013.3
20260901183006 86 233 0.0 0.0 0.00 0.00 0.00 50 1013.6
20260901181506 86 258 0.0 0.0 0.00 0.00 0.00 49 1013.8
20260901180002 85 79 0.0 0.0 0.00 0.00 0.00 48 1013.9
20260901174602 84 223 0.0 3.0 0.00 0.00 0.00 51 1014.1
20260901174501 84 310 0.0 3.0 0.00 0.00 0.00 52 1014.1
20260901173100 83 278 0.0 4.0 0.00 0.00 0.00 46 1014.2
20260901171607 84 50 0.0 0.0 0.00 0.00 0.00 50 1014.2
20260901170059 83 105 0.0 0.0 0.00 0.00 0.00 55 1014.3
20260901164556 82 252 0.0 0.0 0.00 0.00 0.00 58 1014.1
20260901163053 82 71 0.0 0.0 0.00 0.00 0.00 56 1014.3
20260901161604 79 240 0.0 2.0 0.00 0.00 0.00 61 1014.2
20260901160105 79 356 0.0 3.0 0.00 0.00 0.00 66 1014.4
20260901154542 76 253 0.0 1.0 0.00 0.00 0.00 71 1014.4
20260901153037 73 246 0.0 5.0 0.00 0.00 0.00 88 1014.3
20260901151535 71 297 0.0 0.0 0.00 0.00 0.00 94 1014.4
20260901150033 70 252 0.0 4.0 0.00 0.00 0.00 95 1014.5
20260901144532 69 234 0.0 4.0 0.00 0.00 0.00 95 1014.5
20260901143030 70 198 0.0 1.0 0.00 0.00 0.00 96 1014.5
20260901141529 69 231 1.0 5.0 0.00 0.00 0.00 95 1014.6
20260901140037 70 252 0.0 0.0 0.00 0.00 0.00 96 1014.4
20260901134529 69 256 0.0 0.0 0.00 0.00 0.00 96 1014.5
20260901133025 68 256 0.0 0.0 0.00 0.00 0.00 96 1014.3
20260901131526 69 256 0.0 0.0 0.00 0.00 0.00 96 1014.3
20260901130028 69 256 0.0 0.0 0.00 0.00 0.00 97 1014.3
20260901124530 67 256 0.0 0.0 0.00 0.00 0.00 97 1014.3
20260901123036 65 256 0.0 0.0 0.00 0.00 0.00 97 1014.3
20260901121516 63 256 0.0 0.0 0.00 0.00 0.00 97 1014.2
20260901120022 63 259 0.0 0.0 0.00 0.00 0.00 97 1014.1
20260901114514 61 259 0.0 0.0 0.00 0.00 0.00 97 1014.0
20260901113012 62 259 0.0 0.0 0.00 0.00 0.00 97 1013.7
20260901111511 62 259 0.0 0.0 0.00 0.00 0.00 97 1013.6
20260901110009 62 259 0.0 0.0 0.00 0.00 0.00 97 1013.4
20260901104510 62 259 0.0 0.0 0.00 0.00 0.00 97 1013.1
20260901103007 61 259 0.0 0.0 0.00 0.00 0.00 97 1013.1
20260901101505 62 259 0.0 0.0 0.00 0.00 0.00 97 1013.0
20260901100004 62 259 0.0 0.0 0.00 0.00 0.00 97 1012.9
20260901094507 63 259 0.0 0.0 0.00 0.00 0.00 97 1012.8
20260901093002 63 259 0.0 0.0 0.00 0.00 0.00 96 1012.8
20260901091503 63 259 0.0 0.0 0.00 0.00 0.00 96 1012.7
20260901090005 63 259 0.0 0.0 0.00 0.00 0.00 96 1012.8
20260901084600 62 259 0.0 0.0 0.00 0.00 0.00 95 1012.9
20260901083059 63 259 0.0 0.0 0.00 0.00 0.00 95 1012.7
20260901081558 63 259 0.0 0.0 0.00 0.00 0.00 95 1012.8
20260901080056 63 259 0.0 0.0 0.00 0.00 0.00 95 1012.9
20260901074555 64 259 0.0 0.0 0.00 0.00 0.00 95 1012.9
20260901073054 64 259 0.0 0.0 0.00 0.00 0.00 95 1013.1
20260901071554 64 259 0.0 0.0 0.00 0.00 0.00 95 1013.2
20260901070059 64 259 0.0 0.0 0.00 0.00 0.00 94 1013.3
20260901064552 64 259 0.0 0.0 0.00 0.00 0.00 93 1013.3
20260901063103 65 259 0.0 0.0 0.00 0.00 0.00 92 1013.2
20260901061558 65 259 0.0 0.0 0.00 0.00 0.00 92 1013.3
20260901060052 66 259 0.0 0.0 0.00 0.00 0.00 92 1013.2
20260901054544 66 259 0.0 0.0 0.00 0.00 0.00 92 1013.1
20260901053049 66 260 0.0 0.0 0.00 0.00 0.00 91 1012.9
20260901051541 67 259 0.0 0.0 0.00 0.00 0.00 89 1012.8
20260901050036 67 259 0.0 0.0 0.00 0.00 0.00 88 1012.6
20260901044533 67 259 0.0 0.0 0.00 0.00 0.00 86 1012.5
20260901043034 68 259 0.0 0.0 0.00 0.00 0.00 85 1012.5
20260901041528 69 259 0.0 0.0 0.00 0.00 0.00 82 1012.4
20260901040030 69 259 0.0 0.0 0.00 0.00 0.00 82 1012.5
20260901034530 70 259 0.0 0.0 0.00 0.00 0.00 81 1012.5
20260901033026 70 260 0.0 0.0 0.00 0.00 0.00 80 1012.5
20260901031525 70 259 0.0 0.0 0.00 0.00 0.00 81 1012.4
20260901030025 70 259 0.0 0.0 0.00 0.00 0.00 80 1012.4
20260901024524 71 260 0.0 0.0 0.00 0.00 0.00 80 1012.3
20260901023031 70 260 0.0 0.0 0.00 0.00 0.00 82 1012.1
20260901021522 70 260 0.0 0.0 0.00 0.00 0.00 81 1012.2
20260901020022 71 260 0.0 0.0 0.00 0.00 0.00 79 1012.0
20260901014519 72 260 0.0 0.0 0.00 0.00 0.00 77 1011.8
20260901013017 74 271 0.0 0.0 0.00 0.00 0.00 71 1011.5
20260901011517 75 271 0.0 0.0 0.00 0.00 0.00 67 1011.5
20260901010017 77 272 0.0 0.0 0.00 0.00 0.00 65 1011.3
20260901004514 79 273 0.0 0.0 0.00 0.00 0.00 64 1011.1
20260901003013 83 274 0.0 0.0 0.00 0.00 0.00 59 1011.2
20260901001512 85 274 0.0 0.0 0.00 0.00 0.00 55 1011.2
20260901000011 86 274 0.0 0.0 0.00 0.00 0.00 51 1011.2
20260831234511 87 274 0.0 0.0 0.00 0.00 0.00 50 1011.0
20260831233010 88 274 0.0 0.0 0.00 0.00 0.00 51 1011.0